RH
97 95 96 93 92 92 90 91 91 91 90 90 91 89 89 88 88 88 87 86 85 84 83 82 82 81 79 77 78 76 76 77 80 71 75 98 90 87 82 80 81 72 85
96 95 92 92 91 90 90 90 89 89 89 90 88 90 89 89 88 88 87 87 85 84 83 82 80 80 77 75 71 70 70 76 74 66 78 72 80 77 81 78 74 74 83
94 94 93 92 89 90 88 89 89 87 89 88 88 88 88 88 88 88 87 84 81 81 80 77 77 77 74 71 67 64 70 74 68 52 66 69 71 70 72 74 75 74 77
96 92 90 90 88 90 87 87 89 88 88 87 88 87 88 89 80 75 74 74 74 74 72 71 72 73 72 68 66 63 69 71 63 58 64 66 67 67 71 71 72 73 74
96 91 88 88 89 92 87 88 88 90 88 88 87 88 88 79 73 72 71 70 72 71 71 66 66 68 65 60 58 63 61 66 36 59 63 66 65 63 67 70 74 72 70
93 91 86 87 88 88 88 87 89 90 87 83 82 83 81 76 68 66 65 64 67 69 67 69 64 63 60 62 54 60 67 62 33 41 54 56 61 61 63 67 68 68 70
92 87 84 90 87 88 88 89 90 83 79 80 79 77 72 66 63 62 61 61 63 68 75 62 60 57 61 55 57 59 62 59 34 48 57 64 63 67 66 68 66 64 64
89 85 87 87 89 89 88 85 74 74 74 73 71 72 72 66 62 61 60 59 64 69 68 61 58 58 58 53 52 53 52 53 34 56 68 65 66 68 82 70 65 66 79
88 88 86 87 89 87 78 71 71 71 69 65 59 60 64 66 67 64 60 67 65 67 61 61 59 60 56 53 53 53 46 42 35 68 68 66 65 62 80 90 84 87 87
87 86 77 63 45 46 62 70 68 69 70 76 72 55 52 55 53 67 71 65 65 63 61 60 60 57 56 52 53 56 50 32 30 51 67 67 64 62 67 69 78 87 83
87 77 53 31 42 48 59 71 70 69 52 50 50 50 51 52 51 49 64 67 66 64 60 63 60 58 47 36 36 45 35 31 32 32 37 67 60 59 61 63 67 71 72
86 68 50 41 44 47 49 50 51 49 49 49 49 52 53 54 49 50 53 50 50 52 44 46 50 42 41 39 38 37 41 38 37 36 34 55 58 55 55 54 59 67 73
78 66 58 47 48 49 48 51 51 50 52 54 53 55 59 57 54 46 50 50 45 42 42 46 46 46 46 45 45 44 46 43 41 39 38 44 53 50 50 51 55 61 66
80 71 67 54 56 56 53 56 54 52 54 52 56 61 60 58 54 48 48 48 45 45 48 50 50 50 50 50 50 50 50 47 44 44 44 49 58 50 44 48 51 60 63
83 73 70 62 58 56 52 51 54 53 51 57 62 61 59 54 48 42 47 48 48 50 52 53 55 55 54 53 51 52 51 49 49 48 45 42 40 59 51 47 51 55 58
85 77 76 58 51 51 52 52 51 51 53 58 63 60 57 49 43 40 46 50 52 53 54 55 56 56 54 52 51 51 50 46 45 49 45 42 40 54 59 50 54 53 61
69 57 56 55 55 54 50 50 50 56 60 62 64 58 54 48 43 41 43 47 52 54 57 58 56 56 55 55 53 53 51 48 51 50 54 43 39 44 60 57 54 56 59
62 63 62 70 61 52 50 50 55 58 57 61 62 57 53 47 43 44 44 46 47 48 58 59 60 58 57 57 56 57 51 53 59 50 55 57 47 44 51 64 61 47 50
63 73 70 60 57 55 53 52 48 52 54 54 65 59 45 43 44 48 50 53 52 51 54 58 62 59 58 59 59 59 52 58 61 48 53 57 56 53 49 49 56 53 49
64 60 58 57 54 51 48 45 44 49 50 56 50 44 43 47 48 52 55 56 54 58 56 59 63 61 61 62 63 66 56 56 67 56 46 51 53 53 53 51 51 48 58
51 50 50 47 47 46 45 45 40 45 42 42 43 42 42 51 53 56 57 52 55 57 58 62 66 66 64 68 70 71 60 55 65 61 53 48 54 52 52 51 52 53 54
53 50 48 48 48 46 44 42 44 43 47 47 46 46 46 47 50 56 54 57 59 62 63 62 66 71 70 71 80 80 88 68 65 50 64 57 53 54 53 50 52 50 50
52 52 51 49 48 46 42 41 40 41 44 46 48 49 54 55 57 59 59 60 62 60 58 60 64 70 76 73 78 83 89 91 88 63 55 58 55 60 53 49 46 48 47
55 57 50 49 47 44 44 44 45 47 50 51 54 53 51 50 48 59 54 52 50 51 54 58 63 66 68 75 86 81 85 86 98 90 68 66 62 62 57 53 52 50 53
58 54 51 49 45 45 45 46 47 47 50 52 52 49 49 45 48 47 48 50 51 55 58 60 67 65 67 74 85 86 80 88 84 98 89 73 71 71 65 60 57 51 51
59 56 56 50 45 44 45 47 48 49 50 49 46 46 47 43 43 46 46 49 48 49 53 52 62 66 72 78 79 65 69 87 86 94 95 86 84 80 73 64 60 52 56
Wind_Speed
19 16 14 13 12 12 12 12 12 13 13 14 15 15 15 15 15 16 16 16 16 17 17 17 18 18 19 19 19 20 18 17 16 15 11 10 11 12 11 11 13 11 11
22 17 15 14 13 12 12 12 12 12 13 14 14 14 15 15 15 16 16 17 17 17 18 18 18 18 19 19 19 19 19 18 16 14 9 7 11 10 10 10 10 12 12
20 18 15 14 13 12 12 12 12 12 13 14 14 14 14 15 15 16 17 18 18 18 18 19 19 19 19 19 20 20 19 17 18 12 8 10 10 9 8 8 9 9 10
21 18 16 14 13 13 12 12 12 13 13 13 13 13 14 14 16 17 17 17 17 18 18 19 18 18 18 19 19 19 18 17 18 11 11 10 9 8 8 8 8 8 9
20 18 15 14 14 13 13 13 13 13 13 12 13 13 14 15 17 17 17 18 17 17 18 19 19 18 19 19 18 18 19 17 15 8 9 9 8 8 7 7 6 7 7
21 18 15 14 13 13 13 13 12 12 12 13 13 13 13 14 16 17 17 17 17 15 17 17 19 18 18 18 17 18 17 19 15 6 7 8 8 8 7 6 4 6 7
23 17 14 14 13 13 13 13 12 12 12 12 12 12 13 13 12 14 15 15 15 15 15 17 17 16 16 18 16 16 17 17 15 6 6 7 7 9 7 5 4 5 6
23 19 15 14 13 13 14 13 13 13 13 11 11 10 10 13 12 12 13 13 13 14 15 15 17 15 16 17 16 16 16 15 13 4 6 7 8 7 8 4 5 2 4
20 20 17 16 14 13 13 14 14 12 10 10 10 10 9 11 13 13 11 13 13 12 13 15 16 15 16 16 16 15 15 15 12 5 6 8 8 6 7 10 5 4 7
20 18 14 15 16 17 15 13 12 10 10 10 10 9 8 8 12 11 13 13 11 13 13 16 16 16 16 17 16 15 14 13 13 7 5 8 7 6 7 8 8 7 5
19 16 15 17 16 16 15 11 10 9 9 9 10 11 10 11 12 11 13 13 13 14 15 15 14 14 16 15 15 16 15 10 10 9 6 6 6 5 6 7 8 8 7
20 18 16 17 16 16 13 10 9 7 9 8 8 11 11 13 14 13 12 13 14 16 16 14 13 14 16 17 16 15 15 12 10 11 8 7 6 6 6 6 7 7 6
21 19 17 16 14 12 11 9 8 6 6 5 8 9 11 14 16 15 13 13 16 17 16 13 14 17 18 19 17 15 14 13 13 11 10 9 7 6 6 5 5 5 6
22 17 15 12 9 7 8 6 7 5 3 6 7 9 12 15 17 16 13 15 16 17 15 15 17 18 18 18 17 16 15 15 16 14 13 11 9 8 5 5 4 4 5
19 16 13 9 6 8 10 8 7 5 4 6 6 10 13 16 18 17 14 14 15 14 15 16 16 18 19 20 20 19 19 18 18 18 15 10 9 10 7 4 3 3 4
16 13 11 11 13 11 9 8 6 5 6 6 6 8 11 15 17 19 17 16 16 16 16 16 15 17 20 21 21 21 22 22 20 20 18 13 10 10 11 7 4 2 3
21 21 18 14 11 7 7 5 7 7 7 7 3 6 9 12 16 18 18 17 17 17 16 15 16 17 19 21 23 22 24 24 15 18 16 11 11 11 11 11 6 6 5
21 18 14 9 6 6 5 6 10 9 9 7 4 6 9 13 15 16 18 17 19 18 17 18 18 21 21 22 24 25 28 18 12 15 17 13 2 8 11 11 10 9 5
21 14 11 9 7 6 7 9 12 10 10 11 6 7 13 14 15 16 15 15 19 18 18 20 17 20 21 21 23 27 23 15 9 15 15 20 17 6 3 4 1 2 3
18 14 12 10 8 8 9 10 13 13 14 14 12 11 12 11 13 14 13 15 17 16 18 19 17 17 19 18 23 26 18 14 3 4 17 14 15 13 11 8 5 2 1
17 15 13 12 14 15 19 20 20 20 16 16 15 15 12 9 12 13 13 17 17 17 20 19 18 18 17 16 19 24 19 17 8 17 16 14 10 11 10 7 6 4 2
17 15 15 15 17 20 21 19 14 13 13 14 16 18 16 15 13 13 14 15 18 19 18 18 16 15 12 14 11 13 4 7 6 31 6 9 9 13 11 11 8 7 6
16 14 14 15 18 19 20 18 17 14 14 18 19 18 17 15 14 16 13 16 16 17 18 17 15 12 10 15 11 4 3 2 12 6 24 8 15 14 16 15 14 14 11
14 12 13 15 17 17 16 17 18 17 15 15 16 16 17 17 18 14 17 16 17 18 17 16 13 13 14 13 10 4 8 11 3 5 6 13 16 16 17 16 14 13 12
12 12 12 14 15 14 14 15 15 15 14 15 14 15 16 18 17 17 17 16 18 17 17 17 14 15 13 11 10 13 18 18 16 10 9 10 14 20 21 16 16 14 13
11 12 12 11 11 11 12 14 15 15 14 15 16 18 18 20 21 17 18 17 17 17 17 19 17 17 15 12 14 19 22 14 12 12 6 11 13 18 18 22 17 14 11
Wind_Direction
156 155 146 138 129 121 111 103 95 87 82 76 71 67 61 58 53 48 45 41 38 35 31 29 26 22 19 18 15 15 15 14 11 5 15 42 56 56 42 39 32 25 12
148 148 143 134 127 121 115 107 99 92 85 80 74 68 62 58 53 48 43 39 36 32 30 26 23 21 19 18 17 15 15 16 12 14 59 76 50 49 45 36 28 24 20
145 140 137 132 126 120 112 105 98 91 83 74 73 69 63 59 53 47 42 36 31 29 26 23 20 19 19 18 17 16 17 19 19 52 88 76 56 40 32 30 34 35 20
140 140 132 128 123 117 109 103 96 90 82 78 74 71 65 59 52 45 40 36 31 28 26 23 21 20 19 17 17 18 21 19 20 56 83 79 59 31 25 27 28 30 28
137 130 127 126 123 111 110 101 95 90 84 77 75 69 66 60 51 46 44 36 32 32 25 26 22 20 17 15 15 21 19 19 17 37 60 60 51 25 15 22 37 30 24
129 127 129 125 117 111 105 101 97 92 86 80 73 68 64 56 49 42 38 36 32 31 26 15 15 15 17 16 18 19 22 15 20 40 48 48 43 15 6 13 29 30 24
127 127 126 117 112 109 104 101 94 90 84 79 74 68 58 47 37 32 28 26 24 22 18 12 11 11 17 15 12 11 9 11 18 46 49 47 32 357 5 25 21 12 11
126 128 123 113 111 108 106 98 93 88 83 76 67 59 46 31 18 15 13 13 12 11 10 12 10 14 6 6 6 4 6 8 10 62 37 29 20 11 15 27 6 4 40
134 131 130 128 118 111 105 103 92 86 77 65 55 53 37 24 26 15 10 9 3 8 12 11 6 5 3 3 1 356 360 7 14 75 43 35 8 354 24 26 12 44 59
143 140 134 128 119 113 110 101 92 81 63 53 50 36 34 25 17 24 18 21 30 21 9 3 1 359 359 2 3 8 354 354 12 6 32 26 3 349 350 342 358 14 38
146 144 138 126 122 118 113 109 99 82 65 53 41 38 28 18 10 1 23 32 23 13 7 1 3 6 359 351 355 3 360 350 354 356 347 353 336 335 336 336 334 334 346
154 153 142 135 132 131 126 119 110 88 69 60 39 14 29 25 20 12 20 17 12 8 360 357 6 1 355 348 346 350 2 8 347 336 332 312 301 310 317 335 332 329 326
162 157 153 148 142 140 139 134 133 103 82 50 24 27 20 20 18 16 11 6 5 5 359 3 2 2 356 349 345 351 1 2 360 351 349 313 283 286 296 315 332 335 324
164 163 157 159 151 151 157 159 151 107 64 17 26 16 17 21 20 16 10 7 10 9 12 8 4 0 359 353 351 353 354 351 346 341 343 341 279 270 284 286 318 350 344
161 164 167 166 188 165 155 149 142 118 38 35 18 13 14 18 15 13 12 7 15 17 11 4 6 6 1 355 352 349 348 345 342 334 322 309 295 258 257 241 259 315 330
156 162 175 154 142 149 138 124 95 65 23 11 353 8 11 11 12 11 7 3 5 7 6 6 9 5 360 356 352 349 345 340 337 343 324 304 308 240 237 226 222 248 245
139 137 138 132 136 135 116 89 62 34 6 23 17 12 10 10 8 13 11 7 7 1 2 8 6 2 359 357 351 348 345 340 340 353 344 307 273 238 228 225 245 246 273
116 118 114 111 121 103 78 59 18 32 13 12 346 346 2 359 4 11 15 15 9 4 359 0 359 357 355 354 352 347 343 347 350 12 28 32 300 219 223 229 248 266 260
113 106 110 106 83 61 47 22 26 21 17 12 337 353 355 354 358 2 8 9 4 0 356 352 351 350 349 349 349 344 347 349 348 22 26 39 56 76 224 224 165 194 252
109 104 90 77 62 43 31 30 26 31 31 45 38 6 344 338 344 350 359 1 357 354 352 350 344 347 346 345 345 342 342 339 189 321 1 12 27 46 65 76 85 127 109
97 86 72 60 48 39 35 33 40 49 40 32 33 25 11 337 331 341 354 352 354 351 351 350 344 344 345 346 343 341 339 339 197 340 345 348 353 6 18 27 31 36 39
85 76 67 63 52 45 37 34 31 32 33 34 25 23 23 23 16 13 349 352 350 347 349 351 347 342 334 347 342 332 332 339 306 324 300 339 344 338 331 339 327 317 315
74 68 67 61 51 43 34 29 28 26 21 14 12 16 20 19 10 357 356 353 354 352 348 348 346 344 333 339 339 326 335 336 323 312 314 302 322 318 317 316 304 297 294
82 74 69 58 48 40 32 31 28 26 18 9 7 7 2 359 354 358 354 353 350 348 346 345 341 341 336 329 335 321 283 270 263 308 289 289 307 307 317 315 307 289 280
85 71 68 53 45 36 32 28 27 21 14 5 3 358 358 357 356 352 352 350 349 346 345 339 326 327 329 323 312 305 305 287 278 254 285 294 286 300 305 306 310 296 280
80 70 53 48 45 37 30 30 24 15 9 4 1 357 354 354 355 354 349 343 343 343 336 337 323 317 308 303 307 308 300 283 276 261 260 275 286 288 291 303 302 300 288